Tracking 19846 objects as of 20-Sep-2019
HD Live streaming from Space Station
objects crossing your sky now

FENGYUN 1C DEB

Track FENGYUN 1C DEB now!
10-day predictions


NORAD ID: 36710
Int'l Code: 1999-025EAG
Perigee: 728.7 km
Apogee: 857.2 km
Inclination: 98.6 °
Period: 100.6 minutes
Semi major axis: 7163 km
RCS: 0.0087 m2 (small)
Launch date: May 10, 1999
Source: People's Republic of China (PRC)
Launch site: Taiyaun Space Center, China (TSC)

Note: This is SATELLITE DEBRIS
aabbcc
Your satellite tracking list
Your tracking list is empty




NASA's NSSDC Master Catalog

Two Line Element Set (TLE):
1 36710U 99025EAG 19262.38838625  .00000429  00000-0  16907-3 0  9996
2 36710  98.5981 318.8683 0089720 126.4014 234.5487 14.31766024576926
Source of the keplerian elements: AFSPC